Showing default

YAM-6, 59126

Orbit data source: Space-Track

YAM-6, 59126 is a payload satellite owned by Loft Orbital (US) in SSO that was launched on Mon, 04 Mar 2024 UTC via an FALCON 9 launch vehicle from the Air Force Western Test Range (AFWTR). Payloads include a variety of satellites, spacecraft, and rockets equipped with specific instruments for various scientific and technological missions. These include communications satellites like Starlink; space stations such as the ISS; scientific satellites like the Hubble; Earth observation satellites from companies like Planet Labs, Umbra, and HawkEye 360; GPS; miniature CubeSats for education and research; and military/defense satellites.

Loading next visibility...
YAM-6 details
Identifier
59126, 2024-043AE
Orbit
SSO
Last TLE update2 days ago
Origin
Flag of USLoft Orbital (US)
ManufacturerLeoStella
MissionOperational Defense Technology
Bus & MotorYAM, Unknown motor
Mass87 kg wet, 87 kg dry
Launch date (UTC)
2024-03-04 (11 months ago)
Launch vehicle
FALCON 9
Launch site
Air Force Western Test Range (AFWTR)
Object type
Payload
Rocket body
Debris
Shape & HBRBox + 4 Pan, 0.3 m
Radar Cross Section0.080 m², Medium (>0.1 m² and < 1m²)

Expand to show TLE details & history

TLE from 2 days ago
0 YAM-6
1 59126U 24043AE  25022.08243306  .00017260  00000-0  69217-3 0  9997
2 59126  97.4917 150.6741 0009711 240.5377 119.4892 15.25029844 49098
Epoch: 2025-01-22T01:58Z
Definitive object data (Epoch: 2025-01-22T01:58:42.216Z)
Latitude-0.00004°
Longitude-0.68121°
Altitude497.08 km
Speed7.614 km/s
True Right ascension10h 02m 41s
True Declination0° 00' 00"
Sunlit
Object was in full shadow at TLE epoch
Visualization TLE readout
Latitude1.5399°
Longitude-178.87153°
Altitude489.757 km
Speed7.622 km/s
Apparent Right ascension01h 00m 08s
Apparent Declination-30° 25' 10"
Sunlit
Object is in daylight
Visualization observer readout
Local Sidereal Time17:45:42
Azimuth104.528° ESE
Elevation-32.408°
Doppler factor1
Orbital elements
Apogee altitude494.326 km
Perigee altitude480.991 km
Semi-major axis6,865.796 km
Eccentricity0.0009711
Inclination97.4917°
RAAN150.6741°
Arg. of periapsis240.5377°
True anomaly119.58601°
Mean anomaly119.4892°
Eccentric anomaly119.53761°
Mean motion3.81511 °/min
BSTAR0.00069217
Orbital period94.36 mins
Loading maneuver chart data...
Loading historical data...
Loading historical data...
Loading historical data...
Loading historical data...
Loading historical data...
Loading historical data...
Loading historical data...

YAM-6 Visibility forecast

Observer location: undefined°, undefined

Span
Click to sort rows by Start time (UTC) header in descending order
Start Az.
Max El. time (UTC)
Max El. Az.
Max El.
End time (UTC)
End Az.
6 mins2025-01-23 21:03:07.259Z21.66° NNE2025-01-23 21:06:07.259Z69.009° E37.443°2025-01-23 21:09:07.259Z174.312° S
4 mins2025-01-24 09:14:07.259Z226.736° WSW2025-01-24 09:16:07.259Z272.616° WNW20.85°2025-01-24 09:18:07.259Z311.335° NW
|